Regional Weather Roundup
Issued by NWS

Home | Current Version | Previous Version | Graphics & Text | Print | Product List | Glossary On
Versions: 1 2 3 4 5 6 7 8 9 10 11 12 13 14 15 16 17 18 19 20 21 22 23 24 25 26 27 28 29 30 31 32 33 34 35 36 37 38 39 40 41 42 43 44 45 46 47 48 49 50
000
ASUS43 KLOT 280206
RWRIL

ILLINOIS REGIONAL WEATHER ROUNDUP
NATIONAL WEATHER SERVICE CHICAGO/ROMEOVILLE IL
800 PM CST THU NOV 27 2014

NOTE: "FAIR" INDICATES FEW OR NO CLOUDS BELOW 12,000 FEET WITH NO
SIGNIFICANT WEATHER AND/OR OBSTRUCTIONS TO VISIBILITY.

* THESE STATIONS ARE NOT UNDER NWS QUALITY CONTROL. THEY ALSO MAY NOT
  REPORT WEATHER SUCH AS PRECIPITATION OR FOG.

ILZ001-002-007-009-015-016-024-280300-
NORTHWEST ILLINOIS

CITY           SKY/WX    TMP DP  RH WIND       PRES   REMARKS
MOLINE         PTCLDY    10   3  73 CALM      30.42F
STERLING*      PTCLDY    10   3  72 W3        30.41S
SAVANNA*       PTCLDY    12   2  64 CALM      30.42S
$$

ILZ003-004-008-010-011-017-018-280300-
NORTH CENTRAL ILLINOIS

CITY           SKY/WX    TMP DP  RH WIND       PRES   REMARKS
ROCKFORD       MOCLDY    13   3  64 CALM      30.42S
FREEPORT*      PTCLDY     9   1  70 CALM      30.40F
ROCHELLE*      PTCLDY     8   4  84 W3        30.41S
DE KALB*       CLEAR     10   5  83 NW6       30.39S WCI   0
PERU*          PTCLDY    15   9  76 W9        30.43S WCI   3
$$

ILZ005-006-012>014-019>023-280300-
NORTHEAST ILLINOIS

CITY           SKY/WX    TMP DP  RH WIND       PRES   REMARKS
CHICAGO-OHARE  PTCLDY    18   9  68 N7        30.39S WCI   9
CHICAGO-MIDWAY PTCLDY    21  10  62 NW8       30.40S WCI  11
AURORA         CLEAR     11   6  81 W5        30.41R WCI   3
LANSING*       CLOUDY    23  15  70 NW6       30.40S WCI  16
JOLIET*        CLEAR     18  10  71 CALM      30.42R
WAUKEGAN       CLEAR     14   8  77 NW3       30.39R
DUPAGE AIRPORT CLOUDY    18  10  71 NW3       30.39S
KANKAKEE*      CLOUDY   N/A N/A N/A NW6       30.41F
WHEELING       CLEAR     17  10  74 CALM      30.41F
MORRIS*        CLOUDY    18  14  85 W5        30.41S WCI  11
NORTHERLY ISL    N/A     21   9  59 NW7         N/A  WCI  13
$$

LMZ740>746-280300-
SOUTHERN LAKE MICHIGAN

STATION/POSITION SKY/WX   TEMP    WIND        PRES    VSBY  WAVE
                          AIR SEA DIR/SP/G                  HT/PER
                          (F)     (DEG/KT/KT) (MB)    (MI)  (FT/S)
SOUTHERN BUOY              24 42  300/ 16/ 19 1029.5S         5/ 7
WAUKEGAN HARBOR            17     340/  6/  8   N/A
HARRISON CRIB              20     320/ 12/ 16   N/A
BURNHAM HARBOR             21     340/  6/ 12   N/A
CALUMET HARBOR             21     300/  5/  7 1028.0S
MICHIGAN CITY              24     270/ 16/ 18   N/A
$$

ILZ025>027-034>036-040-047-049-050-058-095>099-280300-
WEST-CENTRAL ILLINOIS

CITY           SKY/WX    TMP DP  RH WIND       PRES   REMARKS
QUINCY         MOCLDY    16   6  65 E3        30.43F
GALESBURG*     PTCLDY     5   2  88 CALM      30.41F
MACOMB*        PTCLDY     8   0  71 CALM      30.45F
JACKSONVILLE*  PTCLDY    17  10  73 CALM      30.44F
PITTSFIELD*    CLEAR     19  14  80 NE3       30.44F
$$

ILZ028>032-037-038-041>044-048-051>054-059>061-280300-
CENTRAL ILLINOIS

CITY           SKY/WX    TMP DP  RH WIND       PRES   REMARKS
PONTIAC        CLEAR     17  13  86 W6        30.43F WCI   8
BLOOMINGTON    CLEAR     16  10  77 NW6       30.43S WCI   8
DECATUR        PTCLDY    18   6  59 NW9       30.45F WCI   7
PEORIA         PTCLDY    14   7  73 NW3       30.44F
LACON*         PTCLDY    14   7  75 CALM      30.44S
LINCOLN*       PTCLDY    14   6  70 CALM      30.47F
SPRINGFIELD    PTCLDY    12   8  84 CALM      30.46F
TAYLORVILLE    PTCLDY    16  10  79 NE3       30.46F
$$

ILZ033-039-045-046-055>057-062-063-280300-
EAST-CENTRAL ILLINOIS

CITY           SKY/WX    TMP DP  RH WIND       PRES   REMARKS
CHAMPAIGN      FAIR      18  14  84 W7        30.43F WCI   9
DANVILLE*      CLOUDY    24  14  67 NW9       30.39F WCI  14
RANTOUL*       FLURRIES  24  17  75 NW7       30.42F WCI  16
MATTOON        PTCLDY    18  12  77 W8        30.44F WCI   8
PARIS*         CLEAR     20  18  91 W5        30.45F WCI  14
$$

ILZ079-100>102-280300-
SOUTHWEST ILLINOIS

CITY           SKY/WX    TMP DP  RH WIND       PRES   REMARKS
ALTON          CLEAR     23  18  80 CALM      30.46F
BELLEVILLE     CLEAR     24  20  83 E3        30.47S
CAHOKIA*       CLEAR     27  20  75 NE6       30.47S WCI  20
SPARTA*        CLEAR     23  19  87 NE3       30.48S
$$

ILZ064>066-069>071-074>076-080>082-084>086-088>090-092>094-280300-
SOUTH-CENTRAL ILLINOIS

CITY           SKY/WX    TMP DP  RH WIND       PRES   REMARKS
CARBONDALE     CLEAR     24  21  88 CALM      30.48S
CAIRO*         CLEAR     31  26  83 CALM      30.49R
EFFINGHAM*     PTCLDY    17  12  81 CALM      30.47S
MARION         CLEAR     25  23  93 CALM      30.49R FOG
MT. VERNON     CLEAR     21  18  86 CALM      30.48F
CENTRALIA*     PTCLDY    22  18  84 CALM      30.47F
SALEM*           N/A     22  17  81 CALM      30.48S
METROPOLIS*    PTCLDY    28  28 100 CALM        N/A  FOG
$$

ILZ067-068-072-073-078-083-087-091-280300-
SOUTHEAST ILLINOIS

CITY           SKY/WX    TMP DP  RH WIND       PRES   REMARKS
LAWRENCEVILLE  MOCLDY    26  18  71 NW8       30.47S WCI  18
FLORA*         PTCLDY    22  17  83 N3        30.49S
FAIRFIELD*     CLEAR     23  18  81 N3        30.48F
HARRISBURG*    CLEAR     25  24  97 CALM      30.50S
ROBINSON*      PTCLDY    23  19  81 NW7       30.48S WCI  15
CARMI*         CLEAR     23  23  98 W3        30.48F
$$

ABBREVIATIONS USED IN REMARKS
   TC - TEMPERATURE IN CELSIUS
  WCI - WIND CHILL INDEX
   HX - HEAT INDEX
  VSB - VISIBILITY
$$




USA.gov is the U.S. government's official web portal to all federal, state and local government web resources and services.